{"data":{"norad_id":64301,"intl_designator":"2025-123L","name":"STARLINK-34372","alt_names":[],"object_type":"PAYLOAD","status":"ACTIVE","operator":null,"country":"US","launch_date":"2025-06-08","launch_site_code":"AFWTR","launch_vehicle":null,"mission":null,"orbit_class":"UNKNOWN","rcs_meters":null,"size_class":null,"mass_kg":null,"dimensions":null,"purposes":["comms"],"wikipedia_slug":null,"has_3d_model":false,"image_url":null,"decayed_at":null,"tle_current":{"epoch":"2026-09-20T22:00:03.000096Z","epoch_age_seconds":101647,"freshness":"FRESH","line1":"1 64301U 25123L   26263.91670139  .00027005  00000+0  94078-3 0  9996","line2":"2 64301  70.0000  59.8334 0003304 276.3011  10.5855 15.29569228  5429","mean_motion":15.29569228,"eccentricity":0.0003304,"inclination_deg":70,"raan_deg":59.8334,"arg_perigee_deg":276.3011,"mean_anomaly_deg":10.5855,"bstar":0.00094078,"rev_number":542,"period_min":94.144153375973,"perigee_km":474.83411810982,"apogee_km":479.36405811684,"semimajor_km":6855.2360881133,"source":"CELESTRAK","updated_at":"2026-09-21T09:00:35.306932Z"}}}